Weather History for West Palm Beach, FL

Change the Weather History Date:

Sunday, February 24, 2013

  Actual Average Record
Temperature  
Mean Temperature 79 °F 69 °F  
Max Temperature 88 °F 77 °F 88 °F (1975)
Min Temperature 70 °F 60 °F 32 °F (1989)
Degree Days  
Heating Degree Days 0 1  
Month to date heating degree days 34 44  
Since 1 July heating degree days 82 201  
Cooling Degree Days 14 5  
Month to date cooling degree days 127 108  
Year to date cooling degree days 348 216  
Growing Degree Days 29 (Base 50)    
Moisture  
Dew Point 69 °F    
Average Humidity 74    
Maximum Humidity 100    
Minimum Humidity 48    
Precipitation  
Precipitation 0.00 in 0.11 in 2.05 in (1945)
Month to date precipitation 1.96 2.35  
Year to date precipitation 2.75 5.48  
Snow  
Snow 0.00 in - - ()
Month to date snowfall 0.0  
Since 1 July snowfall 0.0  
Snow Depth 0.00 in    
Sea Level Pressure  
Sea Level Pressure 29.94 in    
Wind  
Wind Speed 8 mph (SW)    
Max Wind Speed 16 mph    
Max Gust Speed 20 mph    
Visibility 10 miles    
Events      
T = Trace of Precipitation, MM = Missing Value Source: NWS Daily Summary

Daily Weather History Graph

Daily Weather History Graph

Search for Another Location

Airport:

Trip Planner

Search our weather history database for the weather conditions in past years. The results will help you decide how hot, cold, wet, or windy it might be!

Date:

Astronomy

Feb. 24, 2013 Rise Set
Actual Time 6:48 AM EST 6:18 PM EST
Civil Twilight 6:25 AM EST 6:42 PM EST
Nautical Twilight 5:58 AM EST 7:09 PM EST
Astronomical Twilight 5:31 AM EST 7:36 PM EST
Moon 5:28 PM EST (2/24) 5:42 AM EST (2/24)
Length of Visible Light 12h 16m
Length of Day
11h 30m
Waxing Gibbous, 99% of the Moon is Illuminated
Feb 24
Waxing Gibbous
Feb 25
Full
Mar 4
Last Quarter
Mar 11
New
Mar 19
First Quarter

Hourly Weather History & Observations

Time (EST) Temp. Heat Index Dew Point Humidity Pressure Visibility Wind Dir Wind Speed Gust Speed Precip Events Conditions
12:53 AM 71.1 °F - 69.1 °F 93% 29.96 in 10.0 mi SW 4.6 mph - N/A   Scattered Clouds
1:53 AM 72.0 °F - 70.0 °F 93% 29.96 in 10.0 mi SW 5.8 mph - N/A   Mostly Cloudy
2:11 AM 71.6 °F - 69.8 °F 94% 29.95 in 10.0 mi SSW 6.9 mph - N/A   Mostly Cloudy
2:53 AM 72.0 °F - 71.1 °F 97% 29.94 in 10.0 mi SW 8.1 mph - N/A   Overcast
3:00 AM 71.6 °F - 71.6 °F 100% 29.94 in 10.0 mi SSW 8.1 mph - N/A   Overcast
3:53 AM 72.0 °F - 71.1 °F 97% 29.93 in 10.0 mi SSW 6.9 mph - N/A   Overcast
4:40 AM 71.6 °F - 71.6 °F 100% 29.93 in 10.0 mi SSW 6.9 mph - N/A   Overcast
4:53 AM 72.0 °F - 71.1 °F 97% 29.93 in 10.0 mi SSW 6.9 mph - N/A   Overcast
5:37 AM 71.6 °F - 69.8 °F 94% 29.94 in 10.0 mi SW 6.9 mph - N/A   Overcast
5:53 AM 72.0 °F - 70.0 °F 93% 29.95 in 10.0 mi SW 5.8 mph - N/A   Overcast
6:16 AM 71.6 °F - 69.8 °F 94% 29.95 in 10.0 mi SSW 5.8 mph - N/A   Mostly Cloudy
6:53 AM 71.1 °F - 69.1 °F 93% 29.95 in 10.0 mi SW 4.6 mph - N/A   Mostly Cloudy
7:53 AM 73.0 °F - 70.0 °F 90% 29.97 in 7.0 mi SW 6.9 mph - N/A   Scattered Clouds
7:59 AM 73.4 °F - 71.6 °F 94% 29.98 in 7.0 mi SW 8.1 mph - N/A   Mostly Cloudy
8:53 AM 73.9 °F - 70.0 °F 87% 30.00 in 7.0 mi WSW 9.2 mph - N/A   Mostly Cloudy
9:08 AM 73.4 °F - 69.8 °F 88% 30.00 in 7.0 mi WSW 11.5 mph - N/A   Mostly Cloudy
9:42 AM 77.0 °F - 69.8 °F 78% 30.00 in 10.0 mi WSW 8.1 mph - N/A   Scattered Clouds
9:53 AM 77.0 °F - 70.0 °F 79% 30.00 in 10.0 mi WSW 10.4 mph - N/A   Scattered Clouds
10:53 AM 81.0 °F 84.1 °F 69.1 °F 67% 29.99 in 10.0 mi WSW 8.1 mph - N/A   Scattered Clouds
11:53 AM 84.0 °F 87.0 °F 68.0 °F 58% 29.96 in 10.0 mi SW 9.2 mph 16.1 mph N/A   Scattered Clouds
12:53 PM 84.9 °F 87.1 °F 66.0 °F 53% 29.94 in 10.0 mi SSW 8.1 mph - N/A   Scattered Clouds
1:53 PM 84.9 °F 86.1 °F 64.0 °F 49% 29.92 in 10.0 mi WSW 10.4 mph - N/A   Scattered Clouds
2:53 PM 84.9 °F 85.4 °F 62.1 °F 46% 29.90 in 10.0 mi West 8.1 mph - N/A   Scattered Clouds
3:53 PM 82.9 °F 86.5 °F 69.1 °F 63% 29.90 in 10.0 mi SE 11.5 mph - N/A   Scattered Clouds
4:53 PM 82.0 °F 84.5 °F 66.9 °F 60% 29.90 in 10.0 mi SSE 12.7 mph - N/A   Scattered Clouds
5:53 PM 79.0 °F - 68.0 °F 69% 29.90 in 10.0 mi SSE 10.4 mph - N/A   Scattered Clouds
6:53 PM 78.1 °F - 68.0 °F 71% 29.92 in 10.0 mi Calm Calm - N/A   Mostly Cloudy
7:53 PM 78.1 °F - 70.0 °F 76% 29.92 in 10.0 mi SSE 6.9 mph - N/A   Mostly Cloudy
8:53 PM 77.0 °F - 70.0 °F 79% 29.93 in 10.0 mi South 8.1 mph - N/A   Mostly Cloudy
9:53 PM 75.9 °F - 69.1 °F 79% 29.95 in 10.0 mi South 5.8 mph - N/A   Mostly Cloudy
10:53 PM 75.0 °F - 68.0 °F 79% 29.93 in 10.0 mi SSW 8.1 mph - N/A   Mostly Cloudy
11:53 PM 73.9 °F - 66.9 °F 79% 29.90 in 10.0 mi SSW 6.9 mph - N/A   Mostly Cloudy